Regional Weather Roundup
Issued by NWS

Home | Current Version | Previous Version | Text Only | Print | Product List | Glossary On
Versions: 1 2 3 4 5 6 7 8 9 10 11 12 13 14 15 16 17 18 19 20 21 22 23 24 25 26 27 28 29 30 31 32 33 34 35 36 37 38 39 40 41 42 43 44 45 46 47 48 49 50
000
ASUS45 KTFX 280604
RWRMT
MONTANA REGIONAL WEATHER ROUNDUP
NATIONAL WEATHER SERVICE GREAT FALLS MT
1200 AM MDT FRI AUG 28 2015

NOTE: "FAIR" INDICATES FEW OR NO CLOUDS BELOW 12000 FEET WITH NO
SIGNIFICANT WEATHER AND/OR OBSTRUCTIONS TO VISIBILITY.

MTZ001>007-043-280700-
WEST OF THE DIVIDE

CITY           SKY/WX    TMP DP  RH WIND       PRES   REMARKS
KALISPELL      CLOUDY    58  43  57 N7        30.02R SMOKE
MISSOULA       CLOUDY    62  40  44 CALM      30.08R HAZE
BUTTE          CLOUDY    54  47  77 SE7       30.24S
MULLAN PASS    CLEAR     62  35  36 VRB6      30.23S
DEER LODGE       N/A     61  45  55 CALM      30.20S
EUREKA           N/A     66  39  37 E6        29.99S
HAMILTON         N/A     64  43  45 S3        30.11S
LIBBY            N/A     66  41  39 CALM      30.01S
$$

MTZ008-052>055-280700-
SOUTHWEST MONTANA

CITY           SKY/WX    TMP DP  RH WIND       PRES   REMARKS
BOZEMAN        MOCLDY    63  48  58 SE16      30.13F
DILLON         CLEAR     56  45  66 SW5       30.19R
W YELLOWSTONE  CLOUDY    50  43  76 CALM      30.33F
$$

MTZ009-010-012-014-046-048-049-054-280700-
EAST SLOPES AND CENTRAL MONTANA

CITY           SKY/WX    TMP DP  RH WIND       PRES   REMARKS
CUT BANK       CLOUDY    68  38  33 SW6       30.01R HAZE
GREAT FALLS    CLOUDY    63  33  32 SW10      30.02R HAZE
HELENA         CLOUDY    69  41  36 SW3       30.10R SMOKE
$$

MTZ011-013-016-021-045-047-050-051-280700-
NORTH CENTRAL MONTANA

CITY           SKY/WX    TMP DP  RH WIND       PRES   REMARKS
HAVRE          MOCLDY    65  44  46 SW7       29.91S
LEWISTOWN      CLOUDY    60  45  57 SE6       30.05R
N BAR RANCH      N/A     63  41  45 CALM      30.08S
CHINOOK          N/A     63  54  72 CALM      29.89S
FORT BENTON      N/A     66  37  34 S5        29.96S
$$

MTZ017>020-022>027-061-062-280700-
NORTHEAST MONTANA

CITY           SKY/WX    TMP DP  RH WIND       PRES   REMARKS
GLASGOW        PTCLDY    68  56  65 W5        29.87F
JORDAN           N/A     63  44  50 NW7       29.92S
SIDNEY         PTCLDY    63  57  82 S7        29.86S
WOLF POINT     CLEAR     64  54  69 W5        29.86S
PLENTYWOOD       N/A     72  55  56 SW3       29.86S
POPLAR           N/A     72  55  56 CALM      29.86S
$$

MTZ028>42-056>058-280700-
SOUTHCENTRAL AND SOUTHEAST MONTANA

CITY           SKY/WX    TMP DP  RH WIND       PRES   REMARKS
BAKER          MOCLDY    63  56  78 S5        29.95F
BILLINGS       MOCLDY    70  44  39 SW22G28   30.04F
LIVINGSTON     PTCLDY    68  42  38 SW22G29   30.16R
MILES CITY     CLOUDY    73  46  38 W8        29.93F
FORSYTH          N/A     75  45  33 SW3       29.95S
$$

REGIONAL REPORTS...DAKOTAS

CITY           SKY/WX    TMP DP  RH WIND       PRES   REMARKS
WILLISTON      CLEAR     67  62  84 S5        29.86S
MINOT            N/A     72  60  66 S13       29.83F
DICKINSON      PTCLDY    63  57  81 S13       29.91F
BISMARCK       PTCLDY    68  61  78 NW3       29.92R
GRAND FORKS      N/A     65  64  97 S7        29.86S
FARGO            N/A     69  65  86 S9        29.89S
BUFFALO SD       N/A     64  56  75 S7        29.92S
RAPID CITY     CLEAR     60  58  92 SE3       30.01F
$$

REGIONAL REPORTS...WYOMING/IDAHO/WASHINGTON

CITY           SKY/WX    TMP DP  RH WIND       PRES   REMARKS
GILLETTE       PTCLDY    63  46  54 CALM      30.09S
SHERIDAN       MOCLDY    73  41  31 SW14      30.07F
BUFFALO WY     MOCLDY    71  41  33 W12       30.15F
CODY           MOCLDY    64  43  45 W5        30.18S
YELLOWSTONE LA   N/A     42  41  96 NW3       30.43F
IDAHO FALLS    CLEAR     66  41  40 S8        30.16R
SALMON         CLOUDY    64  41  42 SE6       30.12S
BOISE          CLEAR     78  36  21 SE10      30.02R
SPOKANE        MOCLDY    74  40  29 E3        29.99S
$$

REGIONAL REPORTS...ALBERTA

CITY           SKY/WX    TMP DP  RH WIND       PRES   REMARKS
$$

REGIONAL REPORTS...SASKATCHEWAN

CITY           SKY/WX    TMP DP  RH WIND       PRES   REMARKS
$$


USA.gov is the U.S. government's official web portal to all federal, state and local government web resources and services.